sat.trackr.live / text

‹ back to catalog

STARLINK-3867

NORAD 52587 · 2022-051BD

PAYLOAD ACTIVE UNKNOWN

§ Identity

Operator
Country
US
Launch date
2022-05-13
Launch site
AFWTR
Launch vehicle
Mass (kg)
RCS (m²)

Purposes: comms

External: N2YO · Heavens-Above · Gunter

§ Orbital elements

Epoch: 2026-05-25T03:40:18.734304Z

Period
95.44 min
Inclination
53.2132°
Eccentricity
0.0001029
Mean motion
15.08839733 rev/d
Perigee alt
539.0 km
Apogee alt
540.5 km
Semi-major
6,917.9 km
B*
-4.5063e-5
RAAN
135.7197°
Arg perigee
74.3135°
Mean anomaly
285.7971°
Rev number
22,313

§ Raw data

STARLINK-38671 52587U 22051BD  26145.15299461 -.00001005  00000+0 -45063-4 0  99912 52587  53.2132 135.7197 0001029  74.3135 285.7971 15.08839733223130

JSON: /api/v1/satellites/52587 · /tle

For live sub-satellite position, see the globe view (requires WebGL).

§ Visibility from observer

Set your observer location to see the next 7 days of passes ≥ 10°. The values pass through the URL so the page stays shareable.

No JS? Fill the form by hand. The geolocation button needs JavaScript.